User: anonymous   Login
Location: Goheenville
(40.9070°N, 79.3720°W)
Time: 13:44:47
(UTC-04:00)
Language:

Cosmos 1633 - Orbit

View from above orbital plane
View from above orbital plane
View from above satellite
View from above satellite

Ground track
Ground track

The orbit data is extracted from the following two-line orbital elements,

1 15592U 85020A   15209.49655141  .00002864  00000-0  11507-3 0  9996
2 15592 082.5406 288.5482 0016975 090.8410 004.0745 15.24393388659068
Epoch (UTC): 28 July 2015 11:55:02
Eccentricity: 0.0016975
inclination: 82.5406°
perigee height: 481 km
apogee height: 504 km
right ascension of ascending node: 288.5482°
argument of perigee: 90.8410°
revolutions per day: 15.24393388
mean anomaly at epoch: 4.0745°
orbit number at epoch: 65906

The dashed part of the orbit path shows where the satellite is in the earth's shadow,  

DLR